Simultaneous Nadir Overpasses (SNOs) Predictions

Prediction of SNOs between METOP-A and NPP Satellite Orbit:

Table of predicted SNOs for the next 14.0 days since TLE Epoch: 8/28/2021
Index Date (METOP-A) Time (METOP-A) Lat,Lon (METOP-A) SZA (METOP-A ) Date (NPP) Time (NPP) Lat,Lon (NPP) SZA (NPP ) Distance(km) Time Diff (sec)
1 08/29/2021 22:15:31 -77.46, 7.77 110.94 08/29/2021 22:14:25 -77.46, 4.26 110.64 84.72 66
2 08/29/2021 23:06:16 77.24, 174.17 68.94 08/29/2021 23:05:05 77.22, 172.64 69.06 37.80 71
3 08/29/2021 23:57:01 -77.09, -19.10 111.15 08/29/2021 23:55:47 -77.12, -19.62 111.06 13.26 74
4 08/30/2021 00:47:42 77.04, 148.03 68.84 08/30/2021 00:46:31 77.05, 147.99 68.87 1.33 71
5 08/30/2021 01:38:24 -77.03, -44.70 111.16 08/30/2021 01:37:15 -77.04, -44.65 111.14 1.70 69
6 08/30/2021 02:29:04 77.02, 122.61 68.85 08/30/2021 02:28:01 77.05, 122.60 68.90 3.26 63
7 08/30/2021 03:19:45 -77.05, -69.95 111.13 08/30/2021 03:18:45 -77.04, -70.03 111.11 2.51 60
8 08/30/2021 04:10:25 77.05, 97.36 68.89 08/30/2021 04:09:31 77.05, 97.21 68.93 3.87 54
9 08/30/2021 05:01:07 -77.03, -95.37 111.11 08/30/2021 05:00:15 -77.04, -95.42 111.08 1.71 52
10 08/30/2021 05:51:47 77.03, 71.94 68.90 08/30/2021 05:51:00 77.01, 72.01 68.90 2.13 47
11 08/30/2021 06:42:29 -77.01,-120.79 111.10 08/30/2021 06:41:45 -77.04,-120.80 111.05 3.81 44
12 08/30/2021 07:33:09 77.01, 46.52 68.91 08/30/2021 07:32:30 77.02, 46.62 68.93 2.85 39
13 08/30/2021 08:23:50 -77.03,-146.04 111.06 08/30/2021 08:23:14 -77.00,-146.01 111.08 3.47 36
14 08/30/2021 09:14:30 77.03, 21.27 68.95 08/30/2021 09:14:00 77.02, 21.24 68.96 1.43 30
15 08/30/2021 10:05:12 -77.01,-171.46 111.05 08/30/2021 10:04:44 -77.01,-171.40 111.05 1.78 28
16 08/30/2021 10:55:52 77.01, -4.15 68.97 08/30/2021 10:55:30 77.02, -4.15 68.99 1.54 22
17 08/30/2021 11:46:34 -76.99, 163.12 111.04 08/30/2021 11:46:14 -77.01, 163.22 111.02 3.05 20
18 08/30/2021 12:37:13 77.03, -29.40 69.00 08/30/2021 12:37:00 77.03, -29.54 69.01 3.61 13
19 08/30/2021 13:27:55 -77.02, 137.87 111.00 08/30/2021 13:27:44 -77.01, 137.83 110.99 1.16 11
20 08/30/2021 14:18:35 77.01, -54.82 69.02 08/30/2021 14:18:30 77.03, -54.92 69.04 3.19 5
21 08/30/2021 15:09:17 -77.00, 112.45 110.98 08/30/2021 15:09:14 -77.02, 112.44 110.97 2.00 3
22 08/30/2021 15:59:57 76.99, -80.24 69.03 08/30/2021 15:59:59 76.99, -80.13 69.02 2.81 2
23 08/30/2021 16:50:38 -77.02, 87.20 110.94 08/30/2021 16:50:44 -77.02, 87.06 110.94 3.60 6
24 08/30/2021 17:41:18 77.02,-105.49 69.07 08/30/2021 17:41:29 76.99,-105.52 69.04 2.87 11
25 08/30/2021 18:32:00 -77.00, 61.78 110.93 08/30/2021 18:32:13 -76.98, 61.85 110.96 3.17 13
26 08/30/2021 19:22:40 76.99,-130.91 69.08 08/30/2021 19:22:59 76.99,-130.90 69.07 0.25 19
27 08/30/2021 20:13:22 -76.98, 36.36 110.92 08/30/2021 20:13:43 -76.98, 36.47 110.94 2.67 21
28 08/30/2021 21:04:02 76.97,-156.33 69.09 08/30/2021 21:04:29 77.00,-156.29 69.10 2.69 27
29 08/30/2021 21:54:42 -77.00, 11.11 110.88 08/30/2021 21:55:12 -76.98, 11.08 110.91 2.52 30
30 08/30/2021 22:45:22 77.00, 178.42 69.13 08/30/2021 22:45:58 77.00, 178.32 69.13 2.40 36
31 08/30/2021 23:36:04 -76.98, -14.31 110.87 08/30/2021 23:36:42 -76.99, -14.31 110.88 0.21 38
32 08/31/2021 00:26:44 76.98, 153.00 69.15 08/31/2021 00:27:28 77.00, 152.94 69.16 3.13 44
33 08/31/2021 01:17:26 -76.96, -39.73 110.86 08/31/2021 01:18:12 -76.99, -39.69 110.85 2.95 46
34 08/31/2021 02:08:06 76.96, 127.58 69.16 08/31/2021 02:08:57 76.96, 127.73 69.13 3.91 51
35 08/31/2021 02:58:47 -76.99, -64.98 110.82 08/31/2021 02:59:42 -76.99, -65.08 110.82 2.54 55
36 08/31/2021 03:49:27 76.98, 102.33 69.20 08/31/2021 03:50:27 76.96, 102.34 69.16 1.90 60
37 08/31/2021 04:40:09 -76.97, -90.40 110.80 08/31/2021 04:41:11 -76.95, -90.29 110.85 3.39 62
38 08/31/2021 05:30:49 76.96, 76.91 69.21 08/31/2021 05:31:57 76.97, 76.96 69.19 1.50 68
39 08/31/2021 06:21:31 -76.95,-115.82 110.79 08/31/2021 06:22:41 -76.95,-115.67 110.82 3.81 70
40 08/31/2021 07:12:13 76.85, 51.14 69.17 08/31/2021 07:13:25 76.88, 51.93 69.11 20.24 72
41 08/31/2021 08:02:57 -76.75,-141.92 110.89 08/31/2021 08:04:08 -76.83,-140.53 110.96 36.49 71
42 08/31/2021 08:53:42 76.51, 24.55 68.99 08/31/2021 08:54:47 76.53, 27.92 68.69 87.40 65



Historial Predications of SNOs between METOP-A and NPP
